Location: Newark
(40.3820°N, 3.6624°W)
Time: 04:38:54
(UTC+00:00)

N. Korean satellite - Pass Details

Date: 25 November 2019
Orbit: 456 x 506 km, 97.2° (Epoch: 07 December)

Event Time Altitude Azimuth Distance (km) Brightness Sun altitude
Rises 17:17:25 0° 167° (SSE) 2,569 10.4 -5.4°
Reaches altitude 10° 17:19:28 10° 167° (SSE) 1,698 9.5 -5.7°
Maximum altitude 17:23:08 89° 77° (ENE) 509 6.6 -6.4°
Drops below altitude 10° 17:26:52 10° 349° (NNW) 1,727 9.3 -7.0°
Sets 17:28:58 0° 349° (N) 2,618 10.2 -7.4°
